(261596) = 2005 XJ50

Discovered at Kitt Peak on 2005-12-02 by Spacewatch.

Orbit

Orbit type: Main Belt

Note: WebGL enabled browser required.

epoch2024-03-31.0
epoch JD2460400.5
perihelion date2024-03-10.36119
perihelion JD2460379.86119
argument of perihelion (°)194.73284
ascending node (°)316.16453
inclination (°)4.45525
eccentricity0.0550282
perihelion distance (AU)3.0364300
Tisserand w.r.t. Jupiter3.2
ΔV w.r.t. Earth (km/sec)10.8
semimajor axis (AU)3.2132492
mean anomaly (°)3.53160
mean daily motion (°/day)0.17111470
aphelion distance (AU)3.390
period (years)5.76
P-vector [x]-0.87321761
P-vector [y]0.45460758
P-vector [z]0.17556465
Q-vector [x]-0.48435161
Q-vector [y]-0.76983216
Q-vector [z]-0.41564644
absolute magnitude16.04
phase slope0.15
uncertainty0
referenceMPEC 2024-E73
observations used243
oppositions15
arc length (days)8414
first opposition used2001
last opposition used2024
residual rms (arc-secs)0.79
perturbers coarse indicatorM-v
perturbers precise indicator003Ek
first observation date used2001-02-20.0
last observation date used2024-03-05.0
computer nameMPCLINUX
JD of orbit computation2456406.170085
perihelion JD uncertainty (days)3.1584E-04
argument of perihelion uncertainty (°)7.2418E-05
ascending node uncertainty (°)4.6186E-05
inclination uncertainty (°)3.3473E-06
eccentricity uncertainty 3.6207E-08
perihelion distance uncertainty (AU)1.1481E-07
Minimum Orbit Intersection Distances (in AU)
for orbit epoch: 2460400.5, reference: E2024-E73
Mercury2.66534
Venus2.32042
Earth2.04797
Mars1.37623
Jupiter1.61262
Saturn5.91557
Uranus15.4022
Neptune26.5217

Observations

252 total observations over interval: 2001 02 20.402250 – 2024 03 05.219398
These data are available for download (format description).

Date (UT) J2000 RA J2000 Dec Magn Location Ref
2001 02 20.402250 10 46 02.926 +05 15 08.00 20.45 V 645 – Apache Point-Sloan Digital Sky Survey MPS 201552
2001 02 20.405722 10 46 02.758 +05 15 08.65 21.24   645 – Apache Point-Sloan Digital Sky Survey MPS 201552
2004 09 15.346897 01 06 14.775 +12 34 29.02 21.30 V 645 – Apache Point-Sloan Digital Sky Survey MPS 390465
2004 09 15.350369 01 06 14.645 +12 34 28.67 22.00   645 – Apache Point-Sloan Digital Sky Survey MPS 390465
2005 12 02.42180 06 35 44.15 +27 50 53.7 20.8 V 691 – Steward Observatory, Kitt Peak-Spacewatch MPS 155502
2005 12 02.43905 06 35 43.43 +27 50 54.4 21.2 V 691 – Steward Observatory, Kitt Peak-Spacewatch MPS 155502
2005 12 02.45644 06 35 42.70 +27 50 54.6 21.1 V 691 – Steward Observatory, Kitt Peak-Spacewatch MPS 155502
2005 12 06.36797 06 32 56.96 +27 52 51.6 20.4 V 691 – Steward Observatory, Kitt Peak-Spacewatch MPS 155502
2005 12 06.38553 06 32 56.15 +27 52 52.3 20.6 V 691 – Steward Observatory, Kitt Peak-Spacewatch MPS 155502
2005 12 06.40279 06 32 55.35 +27 52 52.7 20.7 V 691 – Steward Observatory, Kitt Peak-Spacewatch MPS 155502
2005 12 10.40773 06 29 48.34 +27 54 17.1 20.4 V 691 – Steward Observatory, Kitt Peak-Spacewatch MPS 155502
2005 12 10.42852 06 29 47.33 +27 54 17.0 20.4 V 691 – Steward Observatory, Kitt Peak-Spacewatch MPS 155502
2005 12 10.44587 06 29 46.46 +27 54 17.4 20.7 V 691 – Steward Observatory, Kitt Peak-Spacewatch MPS 155502
2005 12 29.08809 06 13 06.08 +27 49 44.4   691 – Steward Observatory, Kitt Peak-Spacewatch MPS 156669
2005 12 29.10832 06 13 04.94 +27 49 43.7   691 – Steward Observatory, Kitt Peak-Spacewatch MPS 156669
2005 12 29.12856 06 13 03.86 +27 49 42.3   691 – Steward Observatory, Kitt Peak-Spacewatch MPS 156669
2006 01 10.08988 06 02 36.37 +27 36 07.3 20.7 V 691 – Steward Observatory, Kitt Peak-Spacewatch MPS 159065
2006 01 10.10741 06 02 35.53 +27 36 05.9 20.7 V 691 – Steward Observatory, Kitt Peak-Spacewatch MPS 159065
2006 01 10.12494 06 02 34.69 +27 36 04.5 20.9 V 691 – Steward Observatory, Kitt Peak-Spacewatch MPS 159065
2007 02 19.37083 12 02 53.62 -04 18 37.6 20.6 V G96 – Mt. Lemmon Survey MPS 201552
2007 02 19.37702 12 02 53.41 -04 18 37.3 20.9 V G96 – Mt. Lemmon Survey MPS 201552
2007 02 19.38325 12 02 53.12 -04 18 37.2 20.3 V G96 – Mt. Lemmon Survey MPS 201552
2007 02 19.38941 12 02 52.98 -04 18 36.0 20.7 V G96 – Mt. Lemmon Survey MPS 201552
2007 02 23.40516 12 00 41.50 -04 11 49.3 21.0 V 691 – Steward Observatory, Kitt Peak-Spacewatch MPS 201552
2007 02 23.42278 12 00 40.85 -04 11 47.5 21.0 V 691 – Steward Observatory, Kitt Peak-Spacewatch MPS 201552
2007 02 23.44041 12 00 40.21 -04 11 45.1 20.9 V 691 – Steward Observatory, Kitt Peak-Spacewatch MPS 201552
2007 03 13.34726 11 48 24.22 -03 20 13.7 20.2 V G96 – Mt. Lemmon Survey MPS 203130
2007 03 13.35569 11 48 23.86 -03 20 11.9 20.3 V G96 – Mt. Lemmon Survey MPS 203130
2007 03 13.36409 11 48 23.43 -03 20 10.0 20.3 V G96 – Mt. Lemmon Survey MPS 203130
2007 03 13.37240 11 48 23.07 -03 20 08.0 20.3 V G96 – Mt. Lemmon Survey MPS 203130
2010 10 14.549326 01 57 06.672 +18 28 00.58 20.49 i F51 – Pan-STARRS 1, Haleakala MPS 365577
2010 10 14.560831 01 57 06.135 +18 27 58.65 20.69 i F51 – Pan-STARRS 1, Haleakala MPS 365577
2010 10 17.29588 01 55 01.05 +18 19 00.3 20.6 V G96 – Mt. Lemmon Survey MPS 351249
2010 10 17.30219 01 55 00.73 +18 18 59.1 20.7 V G96 – Mt. Lemmon Survey MPS 351249
2010 10 17.30853 01 55 00.44 +18 18 57.7 20.8 V G96 – Mt. Lemmon Survey MPS 351249
2010 10 17.31491 01 55 00.15 +18 18 56.5 20.4 V G96 – Mt. Lemmon Survey MPS 351249
2010 11 02.23456 01 42 39.99 +17 16 20.8 20.5 V G96 – Mt. Lemmon Survey MPS 353796
2010 11 02.24293 01 42 39.60 +17 16 18.8 20.7 V G96 – Mt. Lemmon Survey MPS 353796
2010 11 02.25118 01 42 39.20 +17 16 16.6 20.6 V G96 – Mt. Lemmon Survey MPS 353796
2010 11 02.25943 01 42 38.80 +17 16 14.5 20.5 V G96 – Mt. Lemmon Survey MPS 353796
2010 11 03.437089 01 41 46.383 +17 11 11.64 20.99 w F51 – Pan-STARRS 1, Haleakala MPS 365577
2010 11 03.449915 01 41 45.793 +17 11 08.25 21.07 w F51 – Pan-STARRS 1, Haleakala MPS 365577
2010 11 03.462741 01 41 45.219 +17 11 04.91 20.98 w F51 – Pan-STARRS 1, Haleakala MPS 365577
2010 11 03.475325 01 41 44.645 +17 11 01.57 21.01 w F51 – Pan-STARRS 1, Haleakala MPS 365577
2010 12 03.19699 01 26 22.27 +15 17 11.6 20.1 V G96 – Mt. Lemmon Survey MPS 358940
2010 12 03.20497 01 26 22.12 +15 17 10.1 21.1 V G96 – Mt. Lemmon Survey MPS 358940
2010 12 03.21288 01 26 22.02 +15 17 09.0 20.6 V G96 – Mt. Lemmon Survey MPS 358940
2010 12 03.22086 01 26 21.87 +15 17 07.8 21.0 V G96 – Mt. Lemmon Survey MPS 358940
2011 01 24.13575 01 41 35.98 +15 25 20.4 21.2 V G96 – Mt. Lemmon Survey MPS 368480
2011 01 24.13984 01 41 36.13 +15 25 20.1 22.2 V G96 – Mt. Lemmon Survey MPS 368480
2011 01 24.14389 01 41 36.31 +15 25 20.7 21.2 V G96 – Mt. Lemmon Survey MPS 368480
2011 01 24.14806 01 41 36.45 +15 25 21.9 21.8 V G96 – Mt. Lemmon Survey MPS 368480
2012 01 02.27190 07 36 37.93 +24 41 04.0 20.3 V 691 – Steward Observatory, Kitt Peak-Spacewatch MPS 407094
2012 01 02.28967 07 36 36.95 +24 41 05.4 20.1 V 691 – Steward Observatory, Kitt Peak-Spacewatch MPS 407094
2012 01 02.30743 07 36 36.13 +24 41 07.0 20.2 V 691 – Steward Observatory, Kitt Peak-Spacewatch MPS 407094
2012 01 06.29317 07 33 06.25 +24 45 01.9 20.6 V 691 – Steward Observatory, Kitt Peak-Spacewatch MPS 407094
2012 01 06.31319 07 33 05.14 +24 45 03.3 20.3 V 691 – Steward Observatory, Kitt Peak-Spacewatch MPS 407094
2012 01 06.33320 07 33 04.02 +24 45 04.2 20.3 V 691 – Steward Observatory, Kitt Peak-Spacewatch MPS 407094
2012 01 18.17373 07 22 24.67 +24 52 57.7 20.3 V G96 – Mt. Lemmon Survey MPS 408693
2012 01 18.17837 07 22 24.42 +24 52 57.9 20.5 V G96 – Mt. Lemmon Survey MPS 408693
2012 01 18.18303 07 22 24.13 +24 52 58.1 20.5 V G96 – Mt. Lemmon Survey MPS 408693
2012 01 18.18766 07 22 23.88 +24 52 58.4 20.4 V G96 – Mt. Lemmon Survey MPS 408693
2012 02 01.16125 07 11 04.56 +24 52 54.0 20.4 V G96 – Mt. Lemmon Survey MPS 411456
2012 02 01.16921 07 11 04.23 +24 52 54.1 20.4 V G96 – Mt. Lemmon Survey MPS 411456
2012 02 01.17681 07 11 03.84 +24 52 53.4 20.5 V G96 – Mt. Lemmon Survey MPS 411456
2012 02 01.18441 07 11 03.55 +24 52 53.7 20.9 V G96 – Mt. Lemmon Survey MPS 411456
2013 03 05.51797 13 02 17.367 -11 56 13.36 20.6 r F51 – Pan-STARRS 1, Haleakala MPS 459079
2013 03 05.54093 13 02 16.658 -11 56 11.96 20.5 i F51 – Pan-STARRS 1, Haleakala MPS 459079
2013 03 05.55324 13 02 16.281 -11 56 11.16 20.6 i F51 – Pan-STARRS 1, Haleakala MPS 459079
2013 03 13.47591 12 57 53.121 -11 43 45.60 20.8 w F51 – Pan-STARRS 1, Haleakala MPS 460403
2013 03 13.49014 12 57 52.571 -11 43 43.82 20.6 w F51 – Pan-STARRS 1, Haleakala MPS 460403
2013 03 13.50438 12 57 52.021 -11 43 42.12 20.5 w F51 – Pan-STARRS 1, Haleakala MPS 460403
2013 03 13.51864 12 57 51.472 -11 43 40.31 20.7 w F51 – Pan-STARRS 1, Haleakala MPS 460403
2013 03 14.30877 12 57 22.08 -11 41 59.6 20.9 V 691 – Steward Observatory, Kitt Peak-Spacewatch MPS 461532
2013 03 14.32666 12 57 21.38 -11 41 57.4 20.8 V 691 – Steward Observatory, Kitt Peak-Spacewatch MPS 461532
2013 03 14.34455 12 57 20.65 -11 41 54.8 20.7 V 691 – Steward Observatory, Kitt Peak-Spacewatch MPS 461532
2013 03 18.31902 12 54 44.68 -11 32 15.3 20.6 V 691 – Steward Observatory, Kitt Peak-Spacewatch MPS 461532
2013 03 18.33692 12 54 43.93 -11 32 12.9 20.6 V 691 – Steward Observatory, Kitt Peak-Spacewatch MPS 461532
2013 03 18.35481 12 54 43.22 -11 32 10.0 20.4 V 691 – Steward Observatory, Kitt Peak-Spacewatch MPS 461532
2013 04 02.31659 12 43 44.83 -10 41 38.9 20.1 V G96 – Mt. Lemmon Survey MPS 462559
2013 04 02.32686 12 43 44.29 -10 41 36.4 19.6 V G96 – Mt. Lemmon Survey MPS 462559
2013 04 02.33728 12 43 43.82 -10 41 33.7 19.8 V G96 – Mt. Lemmon Survey MPS 462559
2013 04 02.34759 12 43 43.35 -10 41 32.1 21.3 V G96 – Mt. Lemmon Survey MPS 462559
2013 04 19.41252 12 31 27.345 -09 30 15.78 20.4 i F51 – Pan-STARRS 1, Haleakala MPS 464894
2013 04 19.42477 12 31 26.858 -09 30 12.50 20.0 i F51 – Pan-STARRS 1, Haleakala MPS 464894
2013 04 19.43705 12 31 26.367 -09 30 09.70 20.4 r F51 – Pan-STARRS 1, Haleakala MPS 464894
2015 07 26.45639 22 57 09.665 -04 56 17.12 21.1 i F51 – Pan-STARRS 1, Haleakala MPS 618323
